Location: ?�kov
(49.4404°N, 15.1201°E)
Time: 00:55:39
(UTC+00:00)

Daily predictions for brighter satellites

Satellite Brightness Start Highest point End
(mag) Time Altitude Azimuth Time Altitude Azimuth Time Altitude Azimuth
STARLINK-1363 4.2 00:00:11 10° WNW 00:03:11 41° N 00:06:10 10° ENE
STARLINK-1337 4.2 00:00:34 10° WNW 00:03:33 41° N 00:06:33 10° ENE
STARLINK-1342 4.2 00:00:53 10° WNW 00:03:53 41° N 00:06:52 10° ENE
STARLINK-1364 4.2 00:01:13 10° WNW 00:04:13 41° N 00:07:13 10° ENE
STARLINK-1376 4.2 00:01:33 10° WNW 00:04:33 41° N 00:07:33 10° ENE
STARLINK-1268 3.0 00:04:28 48° S 00:04:45 51° SSE 00:07:46 10° ENE
STARLINK-1360 4.2 00:01:53 10° WNW 00:04:54 41° N 00:07:54 10° ENE
STARLINK-1301 3.6 00:03:55 36° SSW 00:05:08 53° SSE 00:08:55 10° ENE
STARLINK-1361 4.2 00:02:15 10° WNW 00:05:14 41° N 00:08:14 10° ENE
DELTA 2 DEB (DPAF) 4.3 00:02:35 21° SSE 00:05:31 73° ENE 00:10:00 10° N
STARLINK-1367 4.2 00:02:30 10° WNW 00:05:32 42° N 00:08:34 10° ENE
STARLINK-1366 4.2 00:02:54 10° WNW 00:05:53 41° N 00:08:53 10° ENE
Cosmos 1400 Rocket 3.0 00:02:38 10° N 00:06:48 75° ENE 00:09:10 25° SSE
STARLINK-1303 3.5 00:05:53 37° SSW 00:07:00 52° SSE 00:10:40 10° ENE
Cosmos 1570 Rocket 4.1 00:04:53 26° SSW 00:07:58 77° WNW 00:13:16 10° NNE
STARLINK-66 2.8 00:07:08 40° SW 00:08:09 77° SSE 00:11:21 10° ENE
Cosmos 2227 Rocket 3.6 00:04:08 10° NW 00:08:19 21° W 00:10:10 18° SW
Cosmos 1709 Rocket 4.1 00:05:05 25° SSW 00:08:51 70° WNW 00:15:04 10° N
Cosmos 1763 Rocket 4.1 00:05:57 20° SW 00:09:11 48° WNW 00:14:07 10° NNE
STARLINK-1316 2.9 00:09:23 48° S 00:09:54 56° SSE 00:12:58 10° ENE
STARLINK-1338 4.5 00:06:08 10° WNW 00:10:01 49° N 00:13:54 10° ENE
STARLINK-1312 3.5 00:09:13 35° SSW 00:10:28 55° SSE 00:14:10 10° ENE
STARLINK-1257 2.9 00:10:14 47° SSW 00:10:47 57° SSE 00:13:52 10° ENE
STARLINK-1256 2.9 00:11:11 47° SSW 00:11:45 57° SSE 00:14:50 10° ENE
STARLINK-58 3.3 00:11:42 41° S 00:12:03 43° SSE 00:15:06 10° ENE
STARLINK-1213 2.9 00:12:02 47° SSW 00:12:38 58° SSE 00:15:43 10° ENE
STARLINK-52 3.4 00:10:05 10° WNW 00:13:16 62° NNE 00:16:28 10° E
Cosmos 2084 Rocket 4.0 00:09:06 10° NW 00:13:17 40° WSW 00:14:58 29° S
STARLINK-1263 2.9 00:12:53 46° SSW 00:13:31 59° SSE 00:16:37 10° ENE
Meteor 1-27 4.5 00:08:37 10° N 00:14:10 66° ENE 00:19:00 14° SSE
STARLINK-1259 2.9 00:13:47 45° SSW 00:14:28 60° SSE 00:17:33 10° ENE
STARLINK-1265 2.9 00:14:10 45° SSW 00:14:52 61° SSE 00:17:59 10° ENE
Cosmos 2227 4.3 00:09:11 10° NNW 00:14:59 86° ENE 00:20:46 10° SSE
STARLINK-1285 2.9 00:14:37 45° SSW 00:15:20 61° SSE 00:18:26 10° ENE
Cosmos 2298 Rocket 4.0 00:10:34 10° NNW 00:15:54 79° WSW 00:19:50 18° SSE
SL-16 R/B 2.8 00:10:23 11° SSE 00:16:20 71° ENE 00:22:30 10° NNW
STARLINK-1296 2.8 00:16:23 44° SSW 00:17:09 63° SSE 00:20:14 10° ENE
Cosmos 1758 Rocket 4.0 00:15:28 27° SW 00:17:39 53° WNW 00:22:01 10° N
STARLINK-1260 2.8 00:17:14 43° SW 00:18:02 64° SSE 00:21:08 10° ENE
GEOS 3 Rocket 4.3 00:13:17 10° ESE 00:18:22 57° NE 00:23:34 10° NW
STARLINK-1371 4.5 00:14:31 10° WNW 00:18:23 49° N 00:22:14 10° E
STARLINK-1318 2.8 00:18:06 42° SW 00:18:56 65° SSE 00:22:03 10° ENE
STARLINK-75 2.8 00:18:02 32° WSW 00:19:22 83° SSE 00:22:37 10° ENE
STARLINK-1275 2.8 00:18:59 41° SW 00:19:51 66° SSE 00:22:58 10° ENE
STARLINK-48 4.1 00:19:05 31° S 00:20:12 38° SE 00:23:49 10° ENE
STARLINK-1309 2.8 00:19:50 41° SW 00:20:44 67° SSE 00:23:51 10° ENE
STARLINK-1282 2.8 00:20:42 40° SW 00:21:38 68° SSE 00:24:45 10° ENE
IRAS Rocket 4.3 00:18:06 22° S 00:21:38 62° WSW 00:27:08 10° NNW
STARLINK-1283 3.5 00:20:03 26° SW 00:22:16 70° SSE 00:26:23 10° ENE
STARLINK-1313 2.7 00:21:38 36° SW 00:22:44 76° SSE 00:25:51 10° ENE
STARLINK-1341 4.5 00:18:54 10° WNW 00:22:47 50° N 00:26:40 10° E
STARLINK-80 3.3 00:21:07 29° SW 00:22:56 68° SSE 00:26:43 10° ENE
STARLINK-1279 2.7 00:22:32 36° SW 00:23:40 77° SSE 00:26:48 10° ENE
STARLINK-1298 2.7 00:23:16 38° SW 00:24:17 71° SSE 00:27:24 10° ENE
STARLINK-1293 2.7 00:24:10 37° SW 00:25:13 72° SSE 00:28:20 10° ENE
SL-16 R/B 3.2 00:22:44 17° SSE 00:26:32 36° ESE 00:31:41 10° NE
Cosmos 2208 Rocket 4.2 00:23:37 23° SW 00:26:59 65° WNW 00:32:21 10° NNE
STARLINK-1255 2.7 00:25:54 35° SW 00:27:02 74° SSE 00:30:09 10° ENE
STARLINK-1374 4.4 00:23:15 10° WNW 00:27:10 51° N 00:31:05 10° E
STARLINK-22 2.8 00:26:16 31° WSW 00:27:38 79° SSE 00:30:51 10° ENE
STARLINK-1297 3.2 00:26:32 29° SW 00:28:12 69° SSE 00:31:49 10° ENE
STARLINK 1040 3.6 00:26:21 14° W 00:28:16 41° NNW 00:30:44 10° ENE
STARLINK-1311 2.6 00:28:28 34° WSW 00:29:36 86° SSE 00:32:34 10° ENE
CZ-2D R/B 2.5 00:26:07 10° NNE 00:31:16 55° E 00:35:02 18° S
STARLINK-1339 4.4 00:27:31 10° WNW 00:31:25 51° N 00:35:19 10° E
MOZ.5/SAFIR/RUBIN 5/SL-8 3.7 00:29:15 20° S 00:32:25 77° WSW 00:37:06 10° NNW
Cosmos-2242 3.8 00:28:40 10° NNW 00:32:33 35° W 00:34:23 24° SW
USA 215 3.7 00:28:06 13° SSE 00:33:27 37° SW 00:39:28 10° WNW
Cosmos 2221 3.0 00:31:11 10° N 00:35:31 58° ENE 00:39:28 12° SSE
STARLINK-1377 4.4 00:31:56 10° WNW 00:35:52 52° N 00:39:47 10° E
Cosmos 1953 Rocket 3.8 00:33:32 25° SSW 00:36:00 61° WNW 00:40:21 10° N
STARLINK-42 3.0 00:36:26 21° WSW 00:38:23 75° NNW 00:41:31 10° ENE
BREEZE-M R/B 2.7 00:33:00 10° W 00:38:23 85° N 00:41:21 10° E
GP-B 3.1 00:35:45 10° N 00:40:12 74° W 00:42:59 22° SSW
STARLINK-1029 3.0 00:39:05 33° SSW 00:40:12 56° SSE 00:43:19 10° ENE
STARLINK-1353 4.4 00:36:16 10° WNW 00:40:13 53° N 00:44:09 10° E
STARLINK-60 3.0 00:38:08 10° WNW 00:41:15 50° SSW 00:44:21 10° SE
STARLINK-34 2.7 00:40:02 31° SW 00:41:19 71° SSE 00:44:23 10° ENE
CZ-4C R/B 3.6 00:38:35 20° S 00:41:36 73° WSW 00:46:04 10° NNW
FALCON 9 DEB 3.5 00:38:14 10° WNW 00:41:41 67° NNE 00:45:08 10° ESE
STARLINK-41 2.9 00:40:10 20° WSW 00:42:06 73° NNW 00:45:10 10° ENE
Cosmos 1315 Rocket 3.0 00:38:26 10° N 00:42:23 68° ENE 00:45:45 14° SSE
Cosmos 1842 Rocket 3.6 00:37:59 10° N 00:42:29 83° ENE 00:46:04 16° SSE
STARLINK-1272 3.1 00:42:02 21° WSW 00:44:16 87° SSE 00:47:50 10° ENE
STARLINK-1375 4.3 00:40:39 10° WNW 00:44:36 54° N 00:48:33 10° E
Cosmos 540 Rocket 4.1 00:41:07 18° SW 00:44:41 47° WNW 00:49:39 10° NNE
STARLINK-62 2.7 00:43:45 29° SW 00:45:10 76° SSE 00:48:13 10° ENE
Helios 1B rocket 4.3 00:44:31 10° NNW 00:47:40 21° WNW 00:50:24 12° WSW
Cosmos 2360 Rocket 3.9 00:44:27 10° SSE 00:48:55 25° ESE 00:53:24 10° NE
STARLINK-1350 4.3 00:45:00 10° WNW 00:48:57 55° N 00:52:54 10° E
STARLINK-1277 4.5 00:47:31 23° S 00:49:25 35° SE 00:53:12 10° ENE
STARLINK-1307 3.3 00:46:48 18° WSW 00:49:26 89° SSE 00:53:10 10° ENE
STARLINK-1290 3.3 00:50:11 17° WSW 00:52:57 88° NNW 00:56:42 10° ENE
STARLINK-1352 4.3 00:49:15 10° WNW 00:53:12 56° N 00:57:09 10° E
Cosmos 2058 3.9 00:50:48 13° SSE 00:54:20 44° E 00:58:21 10° NNE
STARLINK-1276 4.4 00:52:19 22° SSW 00:54:24 37° SE 00:58:14 10° ENE
Shenzhou-11 Module 3.9 00:56:40 13° SE 00:56:40 13° SE 00:57:11 10° SE
Cosmos 2074 Rocket 4.0 00:51:22 18° SSW 00:56:12 76° W 01:02:31 10° N
Cosmos 1980 Rocket 2.7 00:51:50 16° SW 00:56:13 51° NW 01:01:46 10° NNE
STARLINK-1368 4.2 00:53:51 10° WNW 00:57:49 57° NNE 01:01:48 10° E
Cosmos 1455 4.4 00:57:38 10° WNW 00:58:53 11° W 01:00:05 10° WSW
STARLINK-1305 4.3 00:57:04 21° SSW 00:59:19 40° SE 01:03:13 10° ENE
STARLINK-1306 4.2 00:57:24 21° SSW 00:59:46 43° SE 01:03:45 10° ENE
STARLINK-1317 3.5 00:56:33 13° WSW 00:59:57 80° NNW 01:03:53 10° ENE
CZ-4B R/B 3.8 00:54:53 10° NNE 01:00:08 71° ESE 01:04:34 15° S
STARLINK-1369 4.2 00:58:16 10° WNW 01:02:16 59° NNE 01:06:15 10° E
STARLINK-55 3.6 01:00:41 10° W 01:03:50 54° NNW 01:07:00 10° ENE
STARLINK-1274 3.3 01:00:56 14° WSW 01:03:57 76° NNW 01:07:31 10° ENE
STARLINK-1262 4.2 01:01:53 20° SSW 01:04:19 43° SE 01:08:15 10° ENE
STARLINK-43 4.2 01:01:43 10° W 01:05:19 49° N 01:08:55 10° ENE
STARLINK-1372 4.1 01:02:31 10° WNW 01:06:30 60° NNE 01:10:28 10° E
STARLINK-1291 3.5 01:04:15 12° WSW 01:07:40 74° NNW 01:11:25 10° ENE
STARLINK-1300 4.1 01:06:39 19° SSW 01:09:16 46° SE 01:13:15 10° ENE
ADEOS II 2.8 01:04:13 10° NNE 01:09:20 48° E 01:14:24 10° S
Cosmos 2263 Rocket 2.6 01:05:36 10° NW 01:10:53 44° WSW 01:15:58 11° S
STARLINK-1264 3.5 01:07:26 11° WSW 01:10:59 72° NNW 01:14:44 10° ENE
STARLINK-1378 4.1 01:07:09 10° WNW 01:11:09 62° NNE 01:15:09 10° E
IRS-1D 3.9 01:07:22 10° NNE 01:12:38 64° ESE 01:17:31 11° S
STARLINK-29 3.0 01:10:54 10° WNW 01:14:03 52° SSW 01:17:09 10° SE
STARLINK-1295 4.0 01:11:25 18° SW 01:14:12 49° SSE 01:18:13 10° ENE
NOSS 2-1 (C) 2.9 01:12:04 20° SW 01:14:19 78° SE 01:18:01 10° NE
STARLINK-1267 3.6 01:10:40 10° WSW 01:14:21 70° NNW 01:18:06 10° ENE
AQUA 3.8 01:09:34 10° NNE 01:14:23 89° WSW 01:18:24 15° SSW
UNK 4.3 01:11:40 16° SSW 01:14:57 41° W 01:19:18 10° NNW
STARLINK-28 3.8 01:12:17 10° W 01:15:25 48° N 01:18:33 10° ENE
SL-4 R/B 2.7 01:11:05 10° WNW 01:15:36 40° SW 01:19:57 10° SSE
STARLINK-1379 4.0 01:11:39 10° WNW 01:15:40 64° NNE 01:19:40 10° E
STARLINK-64 3.2 01:14:12 17° SW 01:16:51 73° SSE 01:20:27 10° ENE
USA 229 DEB 4.1 01:09:56 10° NW 01:16:56 52° WSW 01:24:15 10° SSE
USA 229 4.1 01:10:03 10° NW 01:17:03 52° WSW 01:24:21 10° SSE
NOSS 3-1 (C) 4.3 01:10:36 10° NW 01:17:49 50° WSW 01:26:01 10° SSE
NPP 3.7 01:12:52 10° NNE 01:18:17 73° WNW 01:22:54 14° SSW
ARIANE 5 R/B 3.8 01:14:24 10° NNE 01:19:02 36° E 01:23:36 10° SSE
STARLINK-1287 3.9 01:16:12 17° SW 01:19:10 53° SSE 01:23:13 10° ENE
NOSS 2-1 (D) 2.9 01:16:51 19° SW 01:19:13 87° SE 01:22:56 10° NE
STARLINK-1329 4.0 01:15:27 10° WNW 01:19:28 66° NNE 01:23:29 10° E
STARLINK-1207 3.7 01:17:25 10° W 01:21:08 66° NNW 01:24:53 10° ENE
Cosmos 2184 Rocket 4.3 01:16:26 15° SSW 01:21:26 53° WNW 01:27:29 10° N
ERS-2 3.9 01:19:16 10° SE 01:22:36 34° ENE 01:25:57 10° N
STARLINK-1362 3.9 01:19:58 10° WNW 01:24:01 68° NNE 01:28:03 10° E
CZ-4C R/B 3.9 01:19:08 10° W 01:24:03 31° NNW 01:29:51 10° NE
STARLINK-1266 3.7 01:20:49 10° W 01:24:33 64° NNW 01:28:17 10° ENE
BREEZE-M DEB (TANK) 1.7 01:23:14 17° WSW 01:24:37 68° SSE 01:28:01 10° E
Cosmos 1892 2.7 01:21:53 14° S 01:25:07 87° E 01:28:56 10° N
STARLINK-33 3.8 01:22:36 10° W 01:25:37 46° N 01:28:39 10° ENE
NOSS 3-1 (A) 4.1 01:18:41 10° NW 01:26:05 63° SW 01:34:34 10° SSE
STARLINK-1299 3.7 01:24:06 14° SW 01:27:38 67° SSE 01:31:52 10° ENE
STARLINK-1284 3.8 01:24:13 10° W 01:27:57 62° NNW 01:31:42 10° ENE
STARLINK-1373 3.9 01:24:30 10° WNW 01:28:33 71° NNE 01:32:34 10° ESE
STARLINK-1320 2.9 01:25:35 10° WNW 01:28:43 81° NNE 01:31:51 10° ESE
STARLINK-1322 2.9 01:25:56 10° WNW 01:29:05 81° NNE 01:32:12 10° ESE
STARLINK-1302 3.8 01:25:46 15° SW 01:29:05 60° SSE 01:33:11 10° ENE
BREEZE-M DEB (TANK) 1.0 01:26:47 10° W 01:29:06 78° S 01:31:57 10° ESE
STARLINK-26 4.0 01:25:45 10° W 01:29:07 49° N 01:32:29 10° ENE
STARLINK-1324 2.9 01:26:15 10° WNW 01:29:24 82° NNE 01:32:31 10° ESE
STARLINK-1294 2.9 01:26:33 10° WNW 01:29:42 82° NNE 01:32:51 10° ESE
Cosmos 1869 3.8 01:26:18 10° NNW 01:29:56 39° W 01:33:01 13° SSW
STARLINK-1261 2.9 01:26:57 10° WNW 01:30:05 82° NNE 01:33:13 10° ESE
STARLINK-1325 2.9 01:27:18 10° WNW 01:30:26 83° NNE 01:33:34 10° ESE
STARLINK-1333 2.9 01:27:40 10° WNW 01:30:48 83° NNE 01:33:56 10° ESE
STARLINK-1334 2.9 01:27:57 10° WNW 01:31:05 83° NNE 01:34:12 10° ESE
STARLINK-1258 3.8 01:27:41 10° W 01:31:23 61° NNW 01:35:07 10° ENE
STARLINK-1326 2.9 01:28:16 10° WNW 01:31:25 84° NNE 01:34:31 10° ESE
STARLINK-1323 2.9 01:28:39 10° WNW 01:31:47 84° NNE 01:34:55 10° ESE
STARLINK-1349 2.9 01:28:57 10° WNW 01:32:05 84° NNE 01:35:13 10° ESE
STARLINK-1336 2.9 01:29:17 10° WNW 01:32:25 85° NNE 01:35:32 10° ESE
STARLINK-1331 2.9 01:29:39 10° WNW 01:32:48 85° NNE 01:35:55 10° ESE
STARLINK-1344 2.9 01:29:58 10° WNW 01:33:06 85° NNE 01:36:13 10° ESE
STARLINK-1390 3.8 01:29:05 10° WNW 01:33:09 73° NNE 01:37:12 10° ESE
STARLINK-1343 2.9 01:30:20 10° WNW 01:33:29 86° NNE 01:36:36 10° ESE
STARLINK-1346 2.9 01:30:37 10° WNW 01:33:47 86° NNE 01:36:57 10° ESE
STARLINK-1273 3.7 01:30:32 14° SW 01:34:03 64° SSE 01:38:10 10° ENE
STARLINK-1328 2.9 01:31:04 10° WNW 01:34:12 86° NNE 01:37:19 10° ESE
STARLINK-1354 2.9 01:31:22 10° WNW 01:34:29 87° NNE 01:37:37 10° ESE
Cosmos 2322 Rocket 2.2 01:29:42 13° SSW 01:34:45 88° WNW 01:40:25 10° NNE
STARLINK-1347 2.8 01:31:38 10° WNW 01:34:46 87° NNE 01:37:54 10° ESE
STARLINK-1292 3.9 01:31:08 10° W 01:34:51 59° NNW 01:38:34 10° ENE
STARLINK-1357 2.8 01:32:04 10° WNW 01:35:12 88° NNE 01:38:20 10° ESE
STARLINK-1335 2.8 01:32:21 10° WNW 01:35:29 88° NNE 01:38:37 10° ESE
STARLINK-1327 2.8 01:32:42 10° WNW 01:35:50 88° N 01:38:58 10° ESE
STARLINK-1340 2.8 01:33:00 10° WNW 01:36:08 88° NNE 01:39:15 10° ESE
In-Cosmos 22 Rocket 4.2 01:31:02 11° SSW 01:36:22 77° WNW 01:41:51 10° N
STARLINK-1356 2.8 01:33:23 10° WNW 01:36:31 89° NNE 01:39:39 10° ESE
STARLINK-1345 2.8 01:33:41 10° WNW 01:36:49 89° NNW 01:39:57 10° ESE
STARLINK-1355 2.8 01:34:03 10° WNW 01:37:11 90° NE 01:40:19 10° ESE
STARLINK-1321 2.8 01:34:24 10° WNW 01:37:32 90° ESE 01:40:40 10° ESE
STARLINK-1358 2.8 01:34:47 10° WNW 01:37:55 89° WSW 01:41:02 10° ESE
STARLINK-1332 2.8 01:35:05 10° WNW 01:38:12 89° SSW 01:41:19 10° ESE
STARLINK-1348 2.8 01:35:25 10° WNW 01:38:33 89° SSW 01:41:40 10° ESE
STARLINK-1330 2.8 01:35:44 10° WNW 01:38:52 88° SW 01:42:00 10° ESE
STARLINK-1288 3.7 01:35:19 13° SW 01:39:01 69° SSE 01:43:09 10° ENE
STARLINK-61 3.7 01:35:51 14° SW 01:39:07 55° SSE 01:42:58 10° ENE
STARLINK-1365 3.7 01:35:04 10° WNW 01:39:09 78° NNE 01:43:14 10° ESE
STARLINK-1363 2.8 01:36:04 10° WNW 01:39:12 88° SSW 01:42:20 10° ESE
STARLINK-1337 2.8 01:36:27 10° WNW 01:39:35 88° SSW 01:42:42 10° ESE
STARLINK-1342 2.8 01:36:46 10° WNW 01:39:54 87° SSW 01:43:01 10° ESE
Resurs 1-4 Rocket 2.8 01:35:06 10° N 01:40:06 43° WNW 01:44:54 11° SW
STARLINK-1364 2.8 01:37:06 10° WNW 01:40:14 87° SSW 01:43:22 10° ESE
STARLINK-1268 3.8 01:37:30 10° W 01:40:30 48° NNW 01:43:31 10° ENE
STARLINK-1376 2.8 01:37:26 10° WNW 01:40:35 87° SSW 01:43:42 10° ESE
STARLINK-1360 2.8 01:37:46 10° WNW 01:40:55 86° SSW 01:44:02 10° ESE
STARLINK-1361 2.8 01:38:08 10° WNW 01:41:15 86° SSW 01:44:22 10° ESE
STARLINK-1367 2.8 01:38:23 10° WNW 01:41:33 85° SSW 01:44:43 10° ESE
STARLINK-1289 4.0 01:38:00 10° W 01:41:43 57° NNW 01:45:26 10° ENE
STARLINK-1366 2.8 01:38:46 10° WNW 01:41:54 85° SSW 01:45:02 10° ESE
STARLINK-1301 4.1 01:39:54 10° W 01:43:43 56° NNW 01:47:31 10° ENE
Cosmos 1076 Rocket 3.7 01:39:51 11° SSW 01:43:57 63° WNW 01:48:18 10° N
STARLINK-1308 3.6 01:40:08 11° WSW 01:44:02 73° SSE 01:48:11 10° ENE
STARLINK-66 4.1 01:41:21 10° W 01:44:26 43° N 01:47:32 10° ENE
STARLINK-1303 4.0 01:41:31 10° W 01:45:13 56° NNW 01:48:56 10° ENE
Cosmos 2151 3.5 01:41:27 10° S 01:45:40 61° E 01:49:56 10° NNE
STARLINK-1316 3.8 01:42:45 10° W 01:45:48 47° N 01:48:50 10° ENE
COBE Rocket 4.1 01:41:01 10° SSE 01:46:07 86° ENE 01:51:20 10° NNW
STARLINK-1257 3.9 01:43:38 10° W 01:46:41 46° N 01:49:44 10° ENE
H-2A R/B 2.9 01:43:03 10° SSE 01:47:24 56° ENE 01:51:50 10° N
STARLINK-1256 3.9 01:44:38 10° W 01:47:39 46° N 01:50:42 10° ENE
STARLINK-58 3.6 01:44:56 10° W 01:48:04 52° NNW 01:51:12 10° ENE
STARLINK-1213 3.9 01:45:31 10° W 01:48:32 46° N 01:51:34 10° ENE
STARLINK-1312 4.0 01:45:01 10° W 01:48:43 55° NNW 01:52:26 10° ENE
STARLINK-52 3.6 01:46:21 10° W 01:49:16 32° SW 01:52:11 10° SSE
STARLINK-1338 3.6 01:45:17 10° WNW 01:49:17 85° NNE 01:53:17 10° ESE
STARLINK-1263 3.9 01:46:25 10° W 01:49:26 46° N 01:52:28 10° ENE
STARLINK-1259 3.9 01:47:21 10° W 01:50:22 45° N 01:53:24 10° ENE
Okean 3 Rocket 4.3 01:46:14 10° S 01:50:41 57° E 01:55:09 10° NNE
STARLINK-1265 3.9 01:47:43 10° W 01:50:47 46° N 01:53:50 10° ENE
STARLINK-1285 3.9 01:48:13 10° W 01:51:15 45° N 01:54:17 10° ENE
STARLINK-78 4.5 01:48:20 11° SSW 01:51:24 30° SE 01:54:37 10° E
STARLINK-1296 3.9 01:50:03 10° W 01:53:04 45° N 01:56:06 10° ENE
STARLINK-57 4.4 01:49:58 11° SSW 01:53:05 32° SE 01:56:21 10° ENE
Cosmos 1408 2.6 01:49:40 10° SSW 01:53:21 72° W 01:57:02 10° N
STARLINK-1304 3.6 01:49:49 10° WSW 01:53:58 81° SSE 01:58:07 10° ENE
STARLINK-1260 3.9 01:50:57 10° W 01:53:58 45° N 01:57:00 10° ENE
STARLINK-49 4.4 01:51:26 10° SSW 01:54:36 32° SE 01:57:52 10° ENE
STARLINK-1318 3.9 01:51:51 10° W 01:54:52 44° N 01:57:55 10° ENE
STARLINK-75 4.1 01:52:34 10° W 01:55:41 43° N 01:58:48 10° ENE
STARLINK-1275 4.0 01:52:47 10° W 01:55:48 44° N 01:58:49 10° ENE
STARLINK-27 4.4 01:53:01 10° SSW 01:56:16 33° SE 01:59:34 10° ENE
GEOS 3 Rocket 4.2 01:51:51 10° S 01:56:35 36° WSW 02:01:26 10° NW
STARLINK-1309 4.0 01:53:40 10° W 01:56:41 44° N 01:59:41 10° ENE
STARLINK-1371 3.5 01:53:33 10° WNW 01:57:31 89° SSW 02:01:29 10° ESE
STARLINK-1282 4.0 01:54:34 10° W 01:57:35 44° N 02:00:36 10° ENE
STARLINK-74 4.3 01:54:35 10° SSW 01:57:52 33° SE 02:01:11 10° ENE
STARLINK-48 3.8 01:54:48 10° W 01:58:41 66° NNW 02:02:34 10° ENE
STARLINK-1313 4.1 01:55:42 10° W 01:58:43 43° N 02:01:44 10° ENE
STARLINK-39 4.3 01:56:12 10° SSW 01:59:30 34° SE 02:02:50 10° ENE
STARLINK-1279 4.1 01:56:39 10° W 01:59:39 42° N 02:02:40 10° ENE
Cosmos 1825 2.2 01:56:10 10° S 01:59:55 89° E 02:03:43 10° N
STARLINK-1278 3.7 01:55:53 10° WSW 02:00:09 87° NNW 02:04:26 10° ENE
STARLINK-1298 4.0 01:57:15 10° W 02:00:15 43° N 02:03:16 10° ENE
SL-16 R/B 3.7 01:55:43 10° SW 02:00:31 23° W 02:05:23 10° NW
Cosmos 2237 4.3 01:54:53 10° SSW 02:00:36 84° ESE 02:06:23 10° NNE
Cosmos 1339 Rocket 4.5 01:54:32 10° N 02:00:40 81° W 02:06:50 10° S
STARLINK-31 4.2 01:57:49 10° SSW 02:01:09 35° SE 02:04:31 10° ENE
STARLINK-1293 4.0 01:58:10 10° W 02:01:12 43° N 02:04:13 10° ENE
STARLINK-80 4.2 01:57:35 10° W 02:01:19 51° N 02:05:03 10° ENE
STARLINK-1341 3.5 01:57:56 10° WNW 02:01:55 85° SSW 02:05:53 10° ESE
STARLINK-1283 4.3 01:57:54 10° W 02:01:57 54° N 02:06:01 10° ENE
SL-08 R/B 3.4 01:57:25 10° S 02:01:58 57° WSW 02:06:32 10° NNW
STARLINK-1280 3.7 01:57:43 10° WSW 02:02:00 86° NNW 02:06:17 10° ENE
STARLINK 1040 3.9 02:00:05 10° WNW 02:02:31 37° N 02:04:56 10° E
STARLINK-69 4.1 01:59:25 10° SW 02:02:46 39° SE 02:06:09 10° ENE
STARLINK-1255 4.0 02:00:00 10° W 02:03:00 43° N 02:06:02 10° ENE
IRS-P3 4.2 01:58:22 10° NNE 02:03:41 71° WNW 02:08:58 10° SSW
STARLINK-22 4.1 02:00:49 10° W 02:03:55 43° N 02:07:00 10° ENE
STARLINK-21 4.1 02:01:04 10° SSW 02:04:26 38° SE 02:07:48 10° ENE
STARLINK-1311 4.1 02:02:14 10° WNW 02:05:03 40° N 02:07:53 10° ENE
Cosmos 1844 Rocket 2.7 01:59:59 10° NNW 02:05:34 70° WSW 02:11:06 10° SSE
STARLINK-1297 4.2 02:02:26 10° W 02:05:58 49° N 02:09:31 10° ENE
STARLINK-45 4.0 02:02:45 10° SW 02:06:11 42° SE 02:09:38 10° ENE
STARLINK-1374 3.5 02:02:23 10° WNW 02:06:24 81° SSW 02:10:25 10° ESE
NOSS 2-1 (E) 4.0 02:05:33 10° WSW 02:08:48 40° NW 02:12:31 10° NNE
STARLINK-76 4.0 02:05:52 10° SW 02:09:17 41° SE 02:12:44 10° ENE
STARLINK-70 4.0 02:06:15 10° SW 02:09:44 43° SE 02:13:15 10° ENE
STARLINK-1339 3.4 02:06:34 10° WNW 02:10:32 77° SSW 02:14:29 10° ESE
SL-16 R/B 2.9 02:05:08 10° SW 02:10:33 45° NW 02:16:01 10° NNE
STARLINK-1286 3.7 02:06:27 10° WSW 02:10:38 84° NNW 02:14:49 10° ENE
STARLINK-23 4.0 02:07:29 10° SW 02:10:55 42° SE 02:14:22 10° ENE
CZ-2D R/B 3.5 02:06:46 10° N 02:11:01 26° WNW 02:15:15 10° WSW
STARLINK-32 3.9 02:08:58 10° SW 02:12:22 42° SSE 02:15:47 10° ENE
Cosmos 2221 4.3 02:09:53 10° NW 02:12:36 16° W 02:15:18 10° WSW
STARLINK-1281 3.7 02:09:43 10° WSW 02:13:52 83° NNW 02:18:02 10° ENE
STARLINK-40 3.9 02:10:42 10° SW 02:14:09 44° SSE 02:17:37 10° ENE
STARLINK-42 4.2 02:11:27 10° WNW 02:14:25 40° N 02:17:24 10° ENE
COSMOS 2428 4.0 02:09:50 10° S 02:15:00 38° ESE 02:20:12 10° NE
STARLINK-1377 3.5 02:11:05 10° WNW 02:15:06 74° SSW 02:19:06 10° ESE
CZ-4C R/B 3.1 02:11:48 10° SSE 02:15:26 88° ENE 02:19:04 10° NNW
Cosmos 773 Rocket 4.1 02:11:59 10° SSW 02:17:15 82° WNW 02:22:35 10° NNE
